• In Hungary
  • List of Countries
  • For 7 days
  • Water Temperature
  • Satellite Maps
  • Weather Map
  • News
  • Weather Widgets
  • user-avatar
    Login

    Hourly Weather Zarechnyy

    Today, 22 July, Sunday

    Time Temperature Precipitation Wind Pressure Humidity
    00:00 +19°C° 0 mm 2 mps 737 mmHg 95%
    01:00 +18°C° 0 mm 2 mps 737 mmHg 95%
    02:00 +18°C° 0 mm 2 mps 737 mmHg 96%
    03:00 +18°C° 0 mm 2 mps 737 mmHg 96%
    04:00 +18°C° 0 mm 2 mps 737 mmHg 97%
    05:00 +18°C° 0 mm 2 mps 737 mmHg 97%
    06:00 +20°C° 0.2 mm 3 mps 737 mmHg 94%
    07:00 +21°C° 0.2 mm 3 mps 738 mmHg 92%
    08:00 +22°C° 0.2 mm 3 mps 738 mmHg 89%
    09:00 +22°C° 0.8 mm 4 mps 738 mmHg 87%
    10:00 +23°C° 0.8 mm 4 mps 737 mmHg 85%
    11:00 +23°C° 0.8 mm 5 mps 737 mmHg 84%
    12:00 +23°C° 0.8 mm 5 mps 737 mmHg 84%
    13:00 +23°C° 0.8 mm 5 mps 737 mmHg 84%
    14:00 +23°C° 0.8 mm 5 mps 737 mmHg 84%
    15:00 +23°C° 0.3 mm 5 mps 737 mmHg 85%
    16:00 +23°C° 0.3 mm 5 mps 737 mmHg 85%
    17:00 +23°C° 0.3 mm 5 mps 737 mmHg 86%
    18:00 +22°C° 0.3 mm 4 mps 737 mmHg 89%
    19:00 +21°C° 0.3 mm 4 mps 737 mmHg 91%
    20:00 +21°C° 0.3 mm 4 mps 737 mmHg 94%
    21:00 +20°C° 0.4 mm 4 mps 737 mmHg 95%
    22:00 +20°C° 0.4 mm 4 mps 737 mmHg 95%
    23:00 +19°C° 0.4 mm 5 mps 737 mmHg 96%

    Tomorrow, 23 July, Monday

    Time Temperature Precipitation Wind Pressure Humidity
    00:00 +19°C° 0 mm 5 mps 737 mmHg 96%
    01:00 +19°C° 0 mm 5 mps 737 mmHg 96%
    02:00 +19°C° 0 mm 5 mps 737 mmHg 96%
    03:00 +19°C° 0 mm 5 mps 737 mmHg 96%
    04:00 +19°C° 0 mm 5 mps 737 mmHg 95%
    05:00 +19°C° 0 mm 5 mps 737 mmHg 95%
    06:00 +19°C° 0.2 mm 5 mps 737 mmHg 95%
    07:00 +19°C° 0.2 mm 4 mps 737 mmHg 94%
    08:00 +20°C° 0.2 mm 4 mps 737 mmHg 94%
    09:00 +20°C° 0.1 mm 5 mps 737 mmHg 93%
    10:00 +20°C° 0.1 mm 5 mps 738 mmHg 92%
    11:00 +21°C° 0.1 mm 5 mps 738 mmHg 91%
    12:00 +21°C° 0.1 mm 5 mps 738 mmHg 89%
    13:00 +22°C° 0.1 mm 5 mps 738 mmHg 86%
    14:00 +22°C° 0.1 mm 5 mps 738 mmHg 84%
    15:00 +22°C° 0.1 mm 5 mps 737 mmHg 85%
    16:00 +22°C° 0.1 mm 5 mps 737 mmHg 87%
    17:00 +21°C° 0.1 mm 4 mps 737 mmHg 88%
    18:00 +21°C° 0.1 mm 4 mps 738 mmHg 90%
    19:00 +20°C° 0.1 mm 4 mps 738 mmHg 92%
    20:00 +20°C° 0.1 mm 4 mps 738 mmHg 93%
    21:00 +20°C° 0.6 mm 4 mps 738 mmHg 94%
    22:00 +19°C° 0.6 mm 4 mps 738 mmHg 96%
    23:00 +19°C° 0.6 mm 4 mps 738 mmHg 97%

    Day after tomorrow, 24 July, Tuesday

    Time Temperature Precipitation Wind Pressure Humidity
    00:00 +19°C° 0.1 mm 3 mps 738 mmHg 97%
    01:00 +19°C° 0.1 mm 3 mps 738 mmHg 97%
    02:00 +19°C° 0.1 mm 3 mps 738 mmHg 97%
    03:00 +19°C° 0 mm 3 mps 738 mmHg 97%
    04:00 +19°C° 0 mm 2 mps 738 mmHg 97%
    05:00 +19°C° 0 mm 2 mps 739 mmHg 97%
    06:00 +21°C° 0.3 mm 2 mps 739 mmHg 92%
    07:00 +23°C° 0.3 mm 2 mps 739 mmHg 88%
    08:00 +24°C° 0.3 mm 2 mps 739 mmHg 84%
    09:00 +25°C° 0.5 mm 2 mps 739 mmHg 78%
    10:00 +27°C° 0.5 mm 2 mps 740 mmHg 71%
    11:00 +28°C° 0.5 mm 2 mps 740 mmHg 64%
    12:00 +28°C° 0.9 mm 3 mps 740 mmHg 66%
    13:00 +28°C° 0.9 mm 3 mps 740 mmHg 68%
    14:00 +28°C° 0.9 mm 3 mps 740 mmHg 71%
    15:00 +27°C° 0.6 mm 3 mps 740 mmHg 74%
    16:00 +27°C° 0.6 mm 3 mps 740 mmHg 78%
    17:00 +26°C° 0.6 mm 2 mps 741 mmHg 82%
    18:00 +25°C° 0.1 mm 3 mps 741 mmHg 85%
    19:00 +24°C° 0.1 mm 3 mps 741 mmHg 88%
    20:00 +21°C° 0.1 mm 4 mps 741 mmHg 90%
    21:00 +21°C° 0.6 mm 4 mps 741 mmHg 92%
    22:00 +20°C° 0.6 mm 3 mps 741 mmHg 93%
    23:00 +20°C° 0.6 mm 3 mps 741 mmHg 95%

    25 July, Wednesday

    Time Temperature Precipitation Wind Pressure Humidity
    00:00 +20°C° 0.5 mm 3 mps 741 mmHg 95%
    01:00 +19°C° 0.5 mm 3 mps 741 mmHg 95%
    02:00 +19°C° 0.5 mm 3 mps 741 mmHg 95%
    03:00 +19°C° 0.1 mm 3 mps 741 mmHg 94%
    04:00 +18°C° 0.1 mm 4 mps 742 mmHg 93%
    05:00 +18°C° 0.1 mm 4 mps 742 mmHg 92%
    06:00 +18°C° 0.4 mm 4 mps 742 mmHg 92%
    07:00 +18°C° 0.4 mm 4 mps 742 mmHg 91%
    08:00 +18°C° 0.4 mm 4 mps 742 mmHg 91%
    09:00 +18°C° 0.9 mm 4 mps 742 mmHg 92%
    10:00 +18°C° 0.9 mm 3 mps 742 mmHg 93%
    11:00 +19°C° 0.9 mm 3 mps 742 mmHg 93%
    12:00 +20°C° 0.2 mm 3 mps 742 mmHg 91%
    13:00 +21°C° 0.2 mm 4 mps 742 mmHg 89%
    14:00 +22°C° 0.2 mm 4 mps 742 mmHg 86%
    15:00 +24°C° 0.4 mm 3 mps 742 mmHg 85%
    16:00 +24°C° 0.4 mm 3 mps 742 mmHg 84%
    17:00 +25°C° 0.4 mm 3 mps 743 mmHg 82%
    18:00 +24°C° 0.2 mm 3 mps 743 mmHg 86%
    19:00 +22°C° 0.2 mm 3 mps 743 mmHg 89%
    20:00 +21°C° 0.2 mm 3 mps 744 mmHg 93%
    21:00 +20°C° 0.1 mm 3 mps 744 mmHg 93%
    22:00 +20°C° 0.1 mm 3 mps 744 mmHg 94%
    23:00 +20°C° 0.1 mm 3 mps 744 mmHg 94%

    26 July, Thursday

    Time Temperature Precipitation Wind Pressure Humidity
    00:00 +19°C° 0 mm 3 mps 744 mmHg 94%
    01:00 +19°C° 0 mm 3 mps 744 mmHg 94%
    02:00 +18°C° 0 mm 3 mps 744 mmHg 94%
    03:00 +18°C° 0.1 mm 3 mps 744 mmHg 93%
    04:00 +18°C° 0.1 mm 3 mps 745 mmHg 92%
    05:00 +18°C° 0.1 mm 3 mps 745 mmHg 92%
    06:00 +19°C° 0 mm 4 mps 745 mmHg 87%
    07:00 +21°C° 0 mm 4 mps 745 mmHg 82%
    08:00 +22°C° 0 mm 5 mps 745 mmHg 77%
    09:00 +23°C° 0 mm 5 mps 745 mmHg 74%
    10:00 +25°C° 0 mm 5 mps 746 mmHg 71%
    11:00 +27°C° 0 mm 5 mps 746 mmHg 68%
    12:00 +27°C° 0 mm 6 mps 746 mmHg 67%
    13:00 +28°C° 0 mm 6 mps 746 mmHg 67%
    14:00 +28°C° 0 mm 6 mps 746 mmHg 66%
    15:00 +28°C° 0 mm 6 mps 746 mmHg 69%
    16:00 +27°C° 0 mm 5 mps 746 mmHg 72%
    17:00 +26°C° 0 mm 5 mps 746 mmHg 75%
    18:00 +26°C° 0 mm 5 mps 746 mmHg 78%
    19:00 +25°C° 0 mm 4 mps 746 mmHg 81%
    20:00 +23°C° 0 mm 4 mps 746 mmHg 84%
    21:00 +23°C° 0 mm 4 mps 746 mmHg 86%
    22:00 +22°C° 0 mm 4 mps 746 mmHg 88%
    23:00 +21°C° 0 mm 4 mps 746 mmHg 90%

    27 July, Friday

    Time Temperature Precipitation Wind Pressure Humidity
    00:00 +21°C° 0 mm 4 mps 747 mmHg 89%
    01:00 +21°C° 0 mm 4 mps 747 mmHg 89%
    02:00 +21°C° 0 mm 4 mps 747 mmHg 88%
    03:00 +20°C° 0.9 mm 4 mps 747 mmHg 88%
    04:00 +20°C° 0.9 mm 4 mps 747 mmHg 89%
    05:00 +20°C° 0.9 mm 4 mps 748 mmHg 89%
    06:00 +21°C° 0.1 mm 5 mps 748 mmHg 87%
    07:00 +21°C° 0.1 mm 5 mps 748 mmHg 84%
    08:00 +22°C° 0.1 mm 5 mps 748 mmHg 82%
    09:00 +25°C° 0 mm 5 mps 748 mmHg 78%
    10:00 +26°C° 0 mm 5 mps 749 mmHg 74%
    11:00 +27°C° 0 mm 5 mps 749 mmHg 70%
    12:00 +28°C° 0 mm 5 mps 749 mmHg 68%
    13:00 +29°C° 0 mm 6 mps 749 mmHg 66%
    14:00 +30°C° 0 mm 6 mps 749 mmHg 63%
    15:00 +29°C° 0 mm 5 mps 749 mmHg 67%
    16:00 +29°C° 0 mm 4 mps 749 mmHg 70%
    17:00 +29°C° 0 mm 4 mps 749 mmHg 74%
    18:00 +27°C° 0.1 mm 4 mps 749 mmHg 77%
    19:00 +25°C° 0.1 mm 4 mps 749 mmHg 81%
    20:00 +23°C° 0.1 mm 4 mps 750 mmHg 85%
    21:00 +22°C° 0 mm 3 mps 750 mmHg 86%
    22:00 +22°C° 0 mm 3 mps 750 mmHg 86%
    23:00 +21°C° 0 mm 3 mps 750 mmHg 87%
    Show more